Welcome to the New NWS' Forecast!
Most changes are behind the scenes, but click here for differences you might notice.

Regional Weather Roundup (RWR)

Issued by Gray - Portland, ME (GYX)

                            
000
ASUS41 KGYX 151810
RWRGYX
WEATHER ROUNDUP FOR MAINE AND NEW HAMPSHIRE
NATIONAL WEATHER SERVICE GRAY ME
100 PM EST THU NOV 15 2018

MEZ002-005-006-010-012-015-018-020-021-024-026-027-029-151900-
MAINE
  
CITY           SKY/WX    TMP DP  RH WIND       PRES   REMARKS
PORTLAND       CLOUDY    30   1  29 CALM      30.54F                  
6HR MIN TEMP:  17; 6HR MAX TEMP:  30; 6HR PCP: TRACE;                

SANFORD        FAIR      29   4  34 VRB3      30.53F                  
BAR HARBOR     FAIR      28   7  41 N7        30.52F                  
WISCASSET      FAIR      30   3  31 N5        30.55F                  
6HR MIN TEMP:  14; 6HR MAX TEMP:  30;                                

ROCKLAND       FAIR      30   5  34 CALM      30.53F                  
FRYEBURG       FAIR      25   8  48 CALM      30.50F                  
6HR MIN TEMP:   4; 6HR MAX TEMP:  25;                                

LEWISTONAUBURN FAIR      27   5  39 CALM      30.52F                  
AUGUSTA        FAIR      27   3  35 CALM      30.52F                  
6HR MIN TEMP:  13; 6HR MAX TEMP:  27;                                

WATERVILLE     FAIR      26   7  44 MISG      30.50S                  
BANGOR         PTSUNNY   28   4  35 NW3       30.52F                  
6HR MIN TEMP:  13; 6HR MAX TEMP:  28;                                

GREENVILLE       N/A     19   4  51 VRB5      30.40F                  
6HR MIN TEMP:   9; 6HR MAX TEMP:  19;                                

MILLINOCKET    FAIR      22   6  50 W6        30.51F                  
6HR MIN TEMP:  11; 6HR MAX TEMP:  22;                                

HOULTON        FAIR      23   8  52 W6        30.47S                  
6HR MIN TEMP:   3; 6HR MAX TEMP:  23;                                

PRESQUE ISLE   FAIR      24   8  50 W10       30.47R WCI  14          
6HR MIN TEMP:   7; 6HR MAX TEMP:  25;                                

FRENCHVILLE    FAIR      24   4  42 NW9       30.40S                  
6HR MIN TEMP:   8; 6HR MAX TEMP:  24;                                

CARIBOU        FAIR      24   5  44 NW6       30.44S                  
6HR MIN TEMP:   6; 6HR MAX TEMP:  24;                                

$$

NHZ002-005-008-009-011-012-014-151900-
NEW HAMPSHIRE
  
CITY           SKY/WX    TMP DP  RH WIND       PRES   REMARKS
PORTSMOUTH     CLOUDY    29   5  35 CALM      30.53F                  
ROCHESTER      FAIR      29   5  36 VRB3      30.51F                  
6HR MIN TEMP:  17; 6HR MAX TEMP:  30;                                

NASHUA         FAIR      29   7  39 CALM      30.53F                  
MANCHESTER     CLOUDY    28   4  35 CALM      30.51F                  
6HR MIN TEMP:  20; 6HR MAX TEMP:  28;                                

CONCORD        FAIR      27   4  37 CALM      30.52F                  
6HR MIN TEMP:  16; 6HR MAX TEMP:  27;                                

LACONIA        FAIR      27   8  44 CALM      30.50F                  
PLYMOUTH       FAIR      26   5  40 CALM      30.49F                  
BERLIN         FAIR      20   6  55 CALM      30.44F                  
6HR MIN TEMP:  -3; 6HR MAX TEMP:  20;                                

WHITEFIELD     FAIR      20   8  60 CALM      30.45F                  
6HR MIN TEMP:   1; 6HR MAX TEMP:  20;                                

JAFFREY        FAIR      27   1  32 S7        30.45F                  
6HR MIN TEMP:  17; 6HR MAX TEMP:  28;                                

KEENE          FAIR      27  10  49 SW5       30.49F                  
LEBANON        FAIR      24   8  50 CALM      30.47F                  
6HR MIN TEMP:  15; 6HR MAX TEMP:  24;                                

MT WASHINGTON  CLOUDY    18 -20  17 NW15        N/A  WCI   3          
6HR MIN TEMP:  10; 6HR MAX TEMP:  19;                                

$$

VTZ005-007-008-151900-
VERMONT
  
CITY           SKY/WX    TMP DP  RH WIND       PRES   REMARKS
ST JOHNSBURY     N/A     19   8  62 MISG      30.46F                  
MONTPELIER     FAIR      18  11  74 NE3       30.46F                  
BURLINGTON     PTSUNNY   24  11  57 S3        30.46F                  
$$

MAZ007-012-024-CTZ003-RIZ002-NYZ038-NYZ072-151900-
SOUTHERN NEW ENGLAND AND NY
  
CITY           SKY/WX    TMP DP  RH WIND       PRES   REMARKS
BOSTON         CLOUDY    32   8  36 CALM      30.54F                  
WORCESTER      CLOUDY    25   5  42 NE3       30.46F                  
NANTUCKET      FAIR      38  21  50 E9        30.49F                  
PROVIDENCE     CLOUDY    30  14  51 N7        30.52F                  
HARTFORD       CLOUDY    28   9  44 N3        30.50F                  
ALBANY         CLOUDY    28  10  46 CALM      30.47F                  
NEW YORK CITY  CLOUDY    36  22  56 NE15      30.43F                  
$$

ANZ081-ANZ082-ANZ150-NHZ014-MEZ023>029-151900-
COASTAL MARINE OBSERVATIONS
  
STATION/POSITION TIME  TEMP    WIND        PRES    WAVE
                       AIR SEA DIR/SP/G            HT/PER
                 (UTC) (F)     (DEG/KT/KT) (MB)    (FT/S)
MOUNT DESERT ROC 1800   30     330/  7/  8 1033.4F
MATINICUS ROCK   1700   29     350/  8/ 12 1033.7F
ISLE OF SHOALS   1700   27     240/  2/  3 1035.1F
CASHES LEDGE BUO 1750   34 50              1034.4F   2/ 4
$$

.............KEY..............
   WCI - WIND CHILL
   TC  - TEMPERATURE IN CELSIUS
   VSB - VISIBILITY IN MILES
   HX  - HEAT INDEX
   FAIR- INDICATES FEW OR NO CLOUDS BELOW 12,000 FT, WITH NO 
         SIGNIFICANT WEATHER AND/OR OBSTRUCTIONS TO VISIBILITY.